Location: St. Louis
(38.6270°N, 90.1994°W)
Time: 04:54:06
(UTC-05:00)

deb Delta - Pass Details

Date: 05 July 2022
Orbit: 1084 x 1202 km, 99.8° (Epoch: 15 August)

Event Time Altitude Azimuth Distance (km) Brightness Sun altitude
Exits shadow 03:44:24 15° 261° (W) 2,739 ? -18.2°
Maximum altitude 03:45:21 16° 270° (W) 2,714 ? -18.1°
Drops below altitude 10° 03:49:27 10° 305° (NW) 3,133 ? -17.6°
Sets 03:53:25 0° 326° (NNW) 4,087 ? -17.1°
